This is the latest recevied weather packets stored in our database for station/object N5ATR. If no packets are shown the sender has not sent any weather packets the latest 10 day(s).
| Time | Temp. | Humidity | Pressure | Rain* | Wind** | Luminosity | Snow |
|---|---|---|---|---|---|---|---|
| 1777528537 | 13.89° C | 18% | 1014.8 hPa | 0 mm | - | 0 W/m² | - |
| 1777528235 | 13.33° C | 19% | 1015 hPa | 0 mm | - | 0 W/m² | - |
| 1777527932 | 12.78° C | 19% | 1014.8 hPa | 0 mm | - | 0 W/m² | - |
| 1777527628 | 13.33° C | 19% | 1014.5 hPa | 0 mm | - | 0 W/m² | - |
| 1777527324 | 13.89° C | 18% | 1014.4 hPa | 0 mm | - | 0 W/m² | - |
| 1777527019 | 14.44° C | 17% | 1014.4 hPa | 0 mm | - | 0 W/m² | - |
| 1777526715 | 15° C | 17% | 1014.5 hPa | 0 mm | - | 0 W/m² | - |
| 1777526411 | 15° C | 17% | 1014.8 hPa | 0 mm | - | 0 W/m² | - |
| 1777526111 | 15.56° C | 17% | 1014.5 hPa | 0 mm | - | 0 W/m² | - |
| 1777525808 | 15° C | 17% | 1014.6 hPa | 0 mm | - | 0 W/m² | - |
| 1777525506 | 15.56° C | 17% | 1014.8 hPa | 0 mm | - | 0 W/m² | - |
| 1777525201 | 15.56° C | 16% | 1014.9 hPa | 0 mm | - | 0 W/m² | - |
| 1777524898 | 15° C | 17% | 1014.8 hPa | 0 mm | - | 0 W/m² | - |
| 1777524596 | 15° C | 16% | 1014.9 hPa | 0 mm | - | 0 W/m² | - |
| 1777524294 | 15.56° C | 16% | 1015.3 hPa | 0 mm | - | 0 W/m² | - |
| 1777523989 | 15.56° C | 16% | 1015 hPa | 0 mm | - | 0 W/m² | - |
| 1777523685 | 15° C | 16% | 1015 hPa | 0 mm | - | 0 W/m² | - |
| 1777523382 | 15° C | 16% | 1015 hPa | 0 mm | - | 0 W/m² | - |
| 1777523079 | 15° C | 16% | 1015.1 hPa | 0 mm | - | 0 W/m² | - |
| 1777522775 | 15.56° C | 15% | 1015.1 hPa | 0 mm | - | 0 W/m² | - |
| 1777522471 | 15.56° C | 15% | 1015.1 hPa | 0 mm | - | 0 W/m² | - |
| 1777522170 | 15.56° C | 15% | 1015.1 hPa | 0 mm | - | 0 W/m² | - |
| 1777521866 | 15.56° C | 15% | 1014.9 hPa | 0 mm | - | 0 W/m² | - |
| 1777521562 | 15.56° C | 15% | 1015.3 hPa | 0 mm | - | 0 W/m² | - |
| 1777521260 | 15.56° C | 15% | 1015.3 hPa | 0 mm | - | 0 W/m² | - |
* Rain latest hour (hover to see other rain measurements)
** Current wind speed in m/s (hover to see current wind gust speed)